Location: Unspecified
(0.0000°N, 0.0000°E)
Time: 09:15:13
(UTC+00:00)

Courier 1B Rocket - Pass Details

Date: 20 December 2018
Orbit: 920 x 1202 km, 28.3° (Epoch: 17 January)

Event Time Altitude Azimuth Distance (km) Brightness Sun altitude
Rises 01:04:39 0° 218° (SW) 3,812 - -61.4°
Reaches altitude 10° 01:08:10 10° 203° (SSW) 2,803 - -60.9°
Maximum altitude 01:13:08 21° 155° (SSE) 2,030 - -60.2°
Drops below altitude 10° 01:17:53 10° 107° (ESE) 2,671 - -59.5°
Sets 01:21:07 0° 92° (E) 3,583 - -59.0°
